Cozumel, Mexico

11:51 PM on March 30, 2017 (GMT +0000)
Cozumel International

Weather History for MMCZ - May, 2014

Change the Weather History Date:

Wednesday, May 14, 2014

  Actual Average Record
Temperature  
Mean Temperature 77 °F -  
Max Temperature 86 °F 88 °F 93 °F (1999)
Min Temperature 68 °F 74 °F 62 °F (2011)
Cooling Degree Days 12    
Growing Degree Days 27 (Base 50)    
Moisture  
Dew Point 72 °F    
Average Humidity 86    
Maximum Humidity 100    
Minimum Humidity 62    
Precipitation  
Precipitation 0.00 in - - ()
Sea Level Pressure  
Sea Level Pressure 29.92 in    
Wind  
Wind Speed 3 mph ()    
Max Wind Speed 14 mph    
Max Gust Speed -    
Visibility 7.2 miles    
Events      
Averages and records for this station are not official NWS values.
T = Trace of Precipitation, MM = Missing Value Source: Averaged Metar Reports

Daily Weather History Graph

Daily Weather History Graph

Search for Another Location

Airport or City:

Trip Planner

Search our weather history database for the weather conditions in past years. The results will help you decide how hot, cold, wet, or windy it might be!

Date:

Astronomy

May. 14, 2014 Rise Set
Actual Time 6:11 AM CDT 7:17 PM CDT
Civil Twilight 5:47 AM CDT 7:40 PM CDT
Nautical Twilight 5:19 AM CDT 8:08 PM CDT
Astronomical Twilight 4:50 AM CDT 8:37 PM CDT
Moon 7:25 PM CDT (5/14) 6:03 AM CDT (5/14)
Length of Visible Light 13h 53m
Length of Day
13h 05m
Full, 100% of the Moon is Illuminated
May 14
Full
May 14
Full
May 21
Last Quarter
May 28
New
Jun 5
First Quarter

Hourly Weather History & Observations

Time (CDT) Temp. Heat Index Dew Point Humidity Pressure Visibility Wind Dir Wind Speed Gust Speed Precip Events Conditions
12:40 AM 73.4 °F - 73.4 °F 100% 29.89 in 7.0 mi East 3.5 mph - N/A   Scattered Clouds
1:40 AM 71.6 °F - 71.6 °F 100% 29.88 in 7.0 mi ESE 3.5 mph - N/A   Scattered Clouds
2:43 AM 71.6 °F - 71.6 °F 100% 29.87 in 7.0 mi SE 3.5 mph - N/A   Partly Cloudy
3:52 AM 71.6 °F - 71.6 °F 100% 29.91 in 7.0 mi Calm Calm - N/A   Partly Cloudy
4:48 AM 69.8 °F - 69.8 °F 100% 29.89 in 7.0 mi Calm Calm - N/A   Partly Cloudy
5:54 AM 68.0 °F - 68.0 °F 100% 29.89 in 7.0 mi Calm Calm - N/A   Partly Cloudy
6:50 AM 69.8 °F - 69.8 °F 100% 29.87 in 7.0 mi Calm Calm - N/A   Mostly Cloudy
7:49 AM 75.2 °F - 73.4 °F 94% 29.93 in 8.0 mi ESE 3.5 mph - N/A   Mostly Cloudy
8:45 AM 80.6 °F 85.4 °F 73.4 °F 79% 29.94 in 8.0 mi SSE 5.8 mph - N/A   Mostly Cloudy
9:43 AM 82.4 °F 88.2 °F 73.4 °F 74% 29.97 in 8.0 mi SE 5.8 mph - N/A   Mostly Cloudy
10:45 AM 84.2 °F 90.9 °F 73.4 °F 70% 29.94 in 8.0 mi SE 10.4 mph - N/A   Mostly Cloudy
11:44 AM 84.2 °F 90.9 °F 73.4 °F 70% 29.93 in 8.0 mi SSE 5.8 mph - N/A   Mostly Cloudy
12:52 PM 86.0 °F 93.4 °F 73.4 °F 66% 30.00 in 7.0 mi SSE 6.9 mph - N/A   Mostly Cloudy
1:54 PM 80.6 °F 85.4 °F 73.4 °F 79% 29.91 in 7.0 mi Calm Calm - N/A   Mostly Cloudy
2:45 PM 80.6 °F 85.4 °F 73.4 °F 79% 29.89 in 7.0 mi SE 4.6 mph - N/A   Mostly Cloudy
3:41 PM 86.0 °F 91.8 °F 71.6 °F 62% 29.91 in 7.0 mi SSE 8.1 mph - N/A   Mostly Cloudy
4:48 PM 82.4 °F 87.2 °F 71.6 °F 70% 29.87 in 7.0 mi SE 13.8 mph - N/A   Mostly Cloudy
5:40 PM 82.4 °F 86.3 °F 69.8 °F 66% 29.87 in 7.0 mi SSE 9.2 mph - N/A   Clear
6:46 PM 78.8 °F - 71.6 °F 78% 29.90 in 7.0 mi SE 5.8 mph - N/A   Scattered Clouds
7:45 PM 75.2 °F - 71.6 °F 89% 29.94 in 7.0 mi Calm Calm - N/A   Scattered Clouds
8:42 PM 73.4 °F - 71.6 °F 94% 29.96 in 7.0 mi Calm Calm - N/A   Scattered Clouds
9:51 PM 73.4 °F - 71.6 °F 94% 30.01 in 7.0 mi Calm Calm - N/A   Scattered Clouds
10:44 PM 71.6 °F - 69.8 °F 94% 29.99 in 7.0 mi Calm Calm - N/A   Scattered Clouds
11:42 PM 69.8 °F - 69.8 °F 100% 29.99 in 7.0 mi Calm Calm - N/A   Scattered Clouds